Location: Newark
(41.9364°N, 2.8061°E)
Time: 16:38:02
(UTC+00:00)

X-37B - Pass Details

Date: 06 August 2021
Orbit: 381 x 393 km, 45.0° (Epoch: 29 August)

Event Time Altitude Azimuth Distance (km) Brightness Sun altitude
Exits shadow 01:56:52 18° 78° (ENE) 1,018 3.2 -25.0°
Drops below altitude 10° 01:57:49 10° 74° (ENE) 1,397 4.0 -24.9°
Sets 01:59:53 0° 72° (ENE) 2,252 5.2 -24.7°
